"2009-05-11 00:00:00",875836,7.171,107.7,6.245,1.301,9.86,102.5767,5.876,7.15,89.5,0,109.9,13.47,6.65,69.7
"2009-05-11 00:00:30",875837,7.684,108,6.118,1.177,10.04,102.573,5.867,7.143,89.6,0,110,13.47,6.64,70.0
"2009-05-11 00:01:00",875838,6.949,107.1,6.354,1.278,9.52,102.5731,5.867,7.189,89.7,0,109.9,13.47,6.64,69.1
"2009-05-11 00:01:30",875839,6.823,107.6,6.02,1.229,9.07,102.5713,5.862,7.051,89.6,0,109.9,13.47,6.63,69.6
"2009-05-11 00:02:00",875840,5.569,102,0.6,0.099,6.526,102.5716,5.863,6.97,89.7,0,109.9,13.5,6.64,64.0
"2009-05-11 00:02:30",875841,7.508,110.8,6.351,1.116,10.27,102.5734,5.868,7.117,89.9,0,109.9,13.47,6.64,72.8
"2009-05-11 00:03:00",875842,7.176,112.5,7.001,1.199,9.57,102.5731,5.867,7.147,89.9,0,109.9,13.47,6.64,74.5
"2009-05-11 00:03:30",875843,8.03,114.3,5.188,1.105,10.71,102.572,5.864,7.116,90,0,109.9,13.47,6.64,76.3
"2009-05-11 00:04:00",875844,7.498,110.8,6.426,1.23,9.42,102.5678,5.853,7.108,90,0,109.9,13.47,6.63,72.8
"2009-05-11 00:04:30",875845,7.354,110.8,6.23,1.226,9.35,102.5644,5.845,7.03,90,0,109.9,13.47,6.62,72.8
"2009-05-11 00:05:00",875846,6.642,106.2,5.816,1.111,7.955,102.5604,5.834,7.012,90,0,109.9,13.47,6.61,68.2
"2009-05-11 00:05:30",875847,7.979,108.9,6.26,1.148,9.83,102.5599,5.833,7.106,90.1,0,109.9,13.47,6.61,70.9
"2009-05-11 00:06:00",875848,8.18,107.9,5.948,1.173,10.64,102.5551,5.821,7.073,90.2,0,109.9,13.47,6.59,69.9
"2009-05-11 00:06:30",875849,8.23,108.6,5.68,1.159,10.41,102.548,5.803,7.062,90.2,0,109.9,13.47,6.58,70.6
"2009-05-11 00:07:00",875850,8.35,110.6,5.948,1.12,10.06,102.5435,5.791,7.034,90.2,0,109.9,13.47,6.56,72.6
"2009-05-11 00:07:30",875851,7.675,107,6.404,1.307,8.38,102.5429,5.79,6.942,90.1,0,109.9,13.47,6.56,69.0
"2009-05-11 00:08:00",875852,7.627,111.1,6.86,1.254,9.13,102.5432,5.791,6.96,90.1,0,109.9,13.47,6.56,73.1
"2009-05-11 00:08:30",875853,8.45,109.5,6.133,1.07,10.27,102.5432,5.791,7.053,90.3,0,109.9,13.47,6.56,71.5
"2009-05-11 00:09:00",875854,8.18,112.9,6.279,1.21,10.43,102.5432,5.791,7.05,90.3,0,109.9,13.47,6.56,74.9
"2009-05-11 00:09:30",875855,8,109.7,6.551,1.112,9.36,102.5424,5.788,6.972,90.3,0,109.9,13.46,6.56,71.7
"2009-05-11 00:10:00",875856,7.859,109.3,7.387,1.303,9.31,102.5407,5.784,7.039,90.4,0,109.9,13.46,6.56,71.3
"2009-05-11 00:10:30",875857,7.823,105.5,6.427,1.342,8.5,102.5356,5.771,6.903,90.2,0,109.9,13.46,6.54,67.5
"2009-05-11 00:11:00",875858,8.51,109.7,6.787,0.998,9.87,102.5316,5.761,7.034,90.4,0,109.9,13.46,6.53,71.7
"2009-05-11 00:11:30",875859,8.41,112.4,6.393,1.052,10.4,102.5251,5.744,7.019,90.4,0,109.9,13.46,6.52,74.4
"2009-05-11 00:12:00",875860,7.735,112,5.889,1.285,9.22,102.515,5.718,6.923,90.3,0,109.9,13.46,6.49,74.0
"2009-05-11 00:12:30",875861,7.891,111,6.233,1.289,9.27,102.5096,5.705,6.942,90.4,0,109.9,13.46,6.48,73.0
"2009-05-11 00:13:00",875862,8.31,109.6,5.656,1.216,10.02,102.5093,5.704,6.952,90.4,0,109.9,13.46,6.48,71.6
"2009-05-11 00:13:30",875863,7.515,102.3,6.175,1.285,8.2,102.5093,5.704,6.812,90.2,0,110,13.46,6.48,64.3
"2009-05-11 00:14:00",875864,7.905,108.1,5.856,1.191,10.1,102.5093,5.704,6.963,90.4,0,109.9,13.46,6.48,70.1
"2009-05-11 00:14:30",875865,8,103.5,5.375,1.267,9.32,102.5051,5.693,6.949,90.4,0,109.9,13.46,6.47,65.5
"2009-05-11 00:15:00",875866,7.156,103.4,6.495,1.32,8.89,102.5008,5.682,6.889,90.4,0,109.9,13.47,6.45,65.4
"2009-05-11 00:15:30",875867,7.32,108.9,6.236,1.224,9.48,102.498,5.675,6.961,90.5,0,109.9,13.47,6.45,70.9
"2009-05-11 00:16:00",875868,6.892,106.5,7.09,1.178,8.16,102.4932,5.663,6.876,90.5,0,109.9,13.47,6.43,68.5
"2009-05-11 00:16:30",875869,7.681,106.8,6.317,1.209,9.3,102.4884,5.651,6.932,90.5,0,109.9,13.47,6.42,68.8
"2009-05-11 00:17:00",875870,7.413,110.9,6.888,1.22,9.19,102.4811,5.632,6.928,90.6,0,109.9,13.47,6.40,72.9
"2009-05-11 00:17:30",875871,7.568,113.3,7.817,1.219,9.83,102.4768,5.621,6.881,90.6,0,109.9,13.47,6.39,75.3
"2009-05-11 00:18:00",875872,7.959,113.4,5.623,1.108,10.07,102.4754,5.617,6.869,90.6,0,109.9,13.47,6.39,75.4
"2009-05-11 00:18:30",875873,8,111.1,5.854,1.149,9.1,102.4754,5.617,6.854,90.6,0,109.9,13.47,6.39,73.1
"2009-05-11 00:19:00",875874,7.762,104.1,8.05,1.235,8.49,102.4754,5.617,6.753,90.6,0,109.9,13.47,6.39,66.1
"2009-05-11 00:19:30",875875,8.32,104.9,6.322,1.29,9.28,102.4751,5.617,6.875,90.7,0,109.9,13.47,6.39,66.9
"2009-05-11 00:20:00",875876,8.38,104.6,6.201,1.334,9.6,102.4709,5.606,6.859,90.7,0,109.9,13.47,6.38,66.6
"2009-05-11 00:20:30",875877,7.951,106,5.274,1.259,9.76,102.4667,5.595,6.883,90.7,0,109.9,13.47,6.37,68.0
"2009-05-11 00:21:00",875878,7.568,104.1,6.939,1.109,9.74,102.4647,5.59,6.896,90.8,0,109.9,13.47,6.36,66.1
"2009-05-11 00:21:30",875879,7.819,100.4,7.566,1.18,9.25,102.4562,5.568,6.737,90.6,0,109.9,13.47,6.34,62.4
"2009-05-11 00:22:00",875880,6.629,97.3,5.282,0.99,6.945,102.4466,5.544,6.704,90.7,0,109.9,13.47,6.32,59.3
"2009-05-11 00:22:30",875881,7.867,99.9,6.342,1.078,9.22,102.4415,5.531,6.784,90.8,0,109.9,13.47,6.30,61.9
"2009-05-11 00:23:00",875882,7.577,99,6.394,1.168,8.44,102.4415,5.531,6.838,90.9,0,109.9,13.47,6.30,61.0
"2009-05-11 00:23:30",875883,8.26,100.6,6.947,1.131,9.24,102.4384,5.523,6.744,90.8,0,109.9,13.47,6.29,62.6
"2009-05-11 00:24:00",875884,7.585,99.6,6.399,1.376,8.57,102.4322,5.507,6.841,90.9,0,109.9,13.47,6.28,61.6
"2009-05-11 00:24:30",875885,7.795,99.8,7.883,1.031,8.96,102.4268,5.493,6.763,90.9,0,109.9,13.47,6.26,61.8
"2009-05-11 00:25:00",875886,8.08,96.6,5.955,1.148,8.33,102.4209,5.478,6.7,90.8,0,109.9,13.47,6.25,58.6
"2009-05-11 00:25:30",875887,8.13,98.9,6.236,1.151,9.54,102.4101,5.451,6.731,90.9,0,109.9,13.47,6.22,60.9
"2009-05-11 00:26:00",875888,8.04,95.6,6.989,1.143,8.11,102.4076,5.444,6.713,90.9,0,109.9,13.47,6.22,57.6
"2009-05-11 00:26:30",875889,8.42,96.3,6.194,1.224,9.34,102.4073,5.443,6.765,91,0,109.9,13.47,6.21,58.3
"2009-05-11 00:27:00",875890,8.52,101.3,5.981,1.14,9.59,102.4025,5.431,6.67,90.9,0,109.9,13.47,6.20,63.3
"2009-05-11 00:27:30",875891,7.297,91.8,4.807,1.081,6.784,102.3988,5.422,6.567,90.9,0,109.9,13.47,6.19,53.8
"2009-05-11 00:28:00",875892,8.3,96.5,6.057,1.202,9.28,102.3971,5.417,6.73,91,0,109.9,13.47,6.19,58.5
"2009-05-11 00:28:30",875893,8.4,93.3,7.02,1.162,9,102.398,5.42,6.667,91,0,109.9,13.47,6.19,55.3
"2009-05-11 00:29:00",875894,8.06,95.7,6.357,1.258,9.6,102.3875,5.393,6.701,91.1,0,109.9,13.47,6.16,57.7
"2009-05-11 00:29:30",875895,8.24,95.9,6.541,1.19,9.62,102.3807,5.376,6.703,91.1,0,109.9,13.47,6.15,57.9
"2009-05-11 00:30:00",875896,8.73,96.4,5.709,0.996,9.61,102.3799,5.373,6.681,91.1,0,109.9,13.47,6.14,58.4
"2009-05-11 00:30:30",875897,7.926,85.9,5.754,1.224,7.997,102.3771,5.366,6.6,91.1,0,109.9,13.47,6.14,47.9
"2009-05-11 00:31:00",875898,7.485,83,6.953,1.138,9.01,102.3737,5.357,6.664,91.1,0,109.9,13.47,6.13,45.0
"2009-05-11 00:31:30",875899,7.561,89.4,7.03,1.229,9.53,102.3737,5.357,6.577,91.1,0,109.9,13.47,6.13,51.4
"2009-05-11 00:32:00",875900,7.777,92.1,6.883,1.226,9.1,102.3737,5.357,6.586,91.1,0,109.9,13.47,6.13,54.1
"2009-05-11 00:32:30",875901,7.557,87.4,6.431,1.235,8.94,102.3709,5.35,6.621,91.2,0,109.9,13.47,6.12,49.4
"2009-05-11 00:33:00",875902,7.215,89,6.267,1.332,9.05,102.3661,5.338,6.615,91.2,0,109.9,13.47,6.11,51.0
"2009-05-11 00:33:30",875903,7.368,88.7,5.58,1.143,9.85,102.3646,5.334,6.61,91.3,0,109.9,13.48,6.11,50.7
"2009-05-11 00:34:00",875904,7.233,90.6,5.787,1.235,8.86,102.3649,5.335,6.604,91.3,0,109.9,13.48,6.11,52.6
"2009-05-11 00:34:30",875905,7.94,95.7,5.557,1.134,9.89,102.3632,5.331,6.667,91.4,0,109.9,13.48,6.10,57.7
"2009-05-11 00:35:00",875906,8.28,93.7,6.467,0.954,9.91,102.3576,5.316,6.556,91.2,0,109.9,13.47,6.09,55.7
"2009-05-11 00:35:30",875907,8.09,94.1,6.315,1.268,8.82,102.3553,5.311,6.59,91.3,0,109.9,13.47,6.08,56.1
"2009-05-11 00:36:00",875908,7.873,91.9,6.882,1.29,8.87,102.3502,5.298,6.566,91.3,0,109.9,13.48,6.07,53.9
"2009-05-11 00:36:30",875909,8.51,95.4,5.242,1.147,9.57,102.3454,5.285,6.593,91.4,0,109.9,13.48,6.06,57.4
"2009-05-11 00:37:00",875910,8.1,94.5,5.779,1.138,9.03,102.3412,5.274,6.531,91.3,0,109.9,13.48,6.05,56.5
"2009-05-11 00:37:30",875911,7.635,91.3,4.796,1.082,8.36,102.3398,5.271,6.599,91.4,0,109.9,13.48,6.04,53.3
"2009-05-11 00:38:00",875912,8.04,91.5,6.435,1.25,8.94,102.3398,5.271,6.575,91.4,0,109.9,13.48,6.04,53.5
"2009-05-11 00:38:30",875913,7.922,91.9,6.223,1.179,9.24,102.3398,5.271,6.511,91.4,0,109.9,13.48,6.04,53.9
"2009-05-11 00:39:00",875914,7.829,93.7,6.145,1.272,9.39,102.3398,5.271,6.573,91.5,0,109.9,13.48,6.04,55.7
"2009-05-11 00:39:30",875915,8.28,97.1,5.966,1.091,9.71,102.3392,5.269,6.532,91.4,0,109.9,13.48,6.04,59.1
"2009-05-11 00:40:00",875916,7.728,90.9,6.303,1.133,9.15,102.3386,5.268,6.561,91.5,0,109.9,13.48,6.04,52.9
"2009-05-11 00:40:30",875917,7.655,91.5,6.659,1.175,8.42,102.335,5.259,6.554,91.5,0,109.9,13.48,6.03,53.5
"2009-05-11 00:41:00",875918,7.462,92.7,6.235,1.172,9.17,102.3313,5.249,6.534,91.5,0,109.9,13.48,6.02,54.7
"2009-05-11 00:41:30",875919,7.84,92.4,6.483,1.227,9.32,102.3313,5.249,6.487,91.4,0,109.9,13.48,6.02,54.4
"2009-05-11 00:42:00",875920,7.678,93.6,7.03,1.338,8.88,102.331,5.249,6.548,91.5,0,109.9,13.48,6.02,55.6
"2009-05-11 00:42:30",875921,8.27,95.4,4.748,1.221,9.44,102.3304,5.247,6.548,91.5,0,109.9,13.47,6.02,57.4
"2009-05-11 00:43:00",875922,7.462,93.5,6.466,1.117,7.754,102.3279,5.241,6.388,91.4,0,109.9,13.47,6.01,55.5
"2009-05-11 00:43:30",875923,7.909,100.1,6.799,1.227,9.01,102.3262,5.236,6.525,91.6,0,109.9,13.47,6.01,62.1
"2009-05-11 00:44:00",875924,8.21,103.3,6.15,1.172,9.51,102.3225,5.227,6.53,91.5,0,109.9,13.47,6.00,65.3
"2009-05-11 00:44:30",875925,7.832,99.6,6.5,1.328,8.84,102.3206,5.222,6.492,91.6,0,109.9,13.47,5.99,61.6
"2009-05-11 00:45:00",875926,8.12,101.3,6.259,1.178,9.52,102.3169,5.212,6.454,91.6,0,109.9,13.47,5.98,63.3
"2009-05-11 00:45:30",875927,7.175,98.2,6.287,1.134,8.07,102.3143,5.206,6.44,91.5,0,109.9,13.47,5.98,60.2
"2009-05-11 00:46:00",875928,7.955,103.3,7.403,1.3,8.84,102.3126,5.202,6.518,91.6,0,109.9,13.47,5.97,65.3
"2009-05-11 00:46:30",875929,7.876,104.7,6.265,1.184,9.25,102.3118,5.2,6.474,91.6,0,109.9,13.47,5.97,66.7
"2009-05-11 00:47:00",875930,8.24,102.8,6.315,1.133,9.49,102.3081,5.19,6.502,91.6,0,109.9,13.47,5.96,64.8
"2009-05-11 00:47:30",875931,7.956,101.8,5.333,1.27,9.33,102.3062,5.185,6.433,91.6,0,109.9,13.47,5.96,63.8
"2009-05-11 00:48:00",875932,7.922,105.6,6.17,1.24,9.65,102.3073,5.188,6.524,91.6,0,109.9,13.48,5.96,67.6
"2009-05-11 00:48:30",875933,7.57,102,7.447,1.313,8.76,102.3085,5.191,6.374,91.5,0,109.9,13.48,5.96,64.0
"2009-05-11 00:49:00",875934,7.773,98.9,6.329,1.38,8.84,102.3088,5.192,6.506,91.6,0,109.9,13.48,5.96,60.9
"2009-05-11 00:49:30",875935,7.899,103.7,7.852,1.077,9.79,102.3088,5.192,6.5,91.6,0,109.9,13.48,5.96,65.7
"2009-05-11 00:50:00",875936,7.965,104.7,7.391,1.255,9.12,102.309,5.192,6.485,91.7,0,109.9,13.48,5.96,66.7
"2009-05-11 00:50:30",875937,8.66,107.8,5.511,1.172,9.74,102.3099,5.195,6.484,91.6,0,109.9,13.48,5.96,69.8
"2009-05-11 00:51:00",875938,8.2,104.6,5.922,1.275,9.33,102.3111,5.198,6.538,91.7,0,109.9,13.48,5.97,66.6
"2009-05-11 00:51:30",875939,8.1,105.6,7.524,1.13,9.36,102.3108,5.197,6.331,91.5,0,109.9,13.48,5.97,67.6
"2009-05-11 00:52:00",875940,7.971,106.4,5.754,1.181,9.97,102.3111,5.198,6.487,91.7,0,109.9,13.48,5.97,68.4
"2009-05-11 00:52:30",875941,7.459,99.8,6.201,1.234,8.45,102.3136,5.204,6.408,91.6,0,109.8,13.48,5.97,61.8
"2009-05-11 00:53:00",875942,8.23,98.5,6.475,1.187,9.09,102.3108,5.197,6.518,91.7,0,109.9,13.48,5.97,60.5
"2009-05-11 00:53:30",875943,8.16,102.2,6.716,1.133,9.33,102.3136,5.204,6.447,91.7,0,109.9,13.48,5.97,64.2
"2009-05-11 00:54:00",875944,7.445,96.1,6.258,1.169,8.5,102.3145,5.206,6.504,91.8,0,109.9,13.48,5.98,58.1
"2009-05-11 00:54:30",875945,7.641,102.2,6.573,1.346,8.96,102.3202,5.221,6.447,91.7,0,109.9,13.48,5.99,64.2
"2009-05-11 00:55:00",875946,8.08,103.9,6.353,1.098,9.58,102.319,5.218,6.491,91.7,0,109.9,13.48,5.99,65.9
"2009-05-11 00:55:30",875947,8.07,104.7,5.61,1.287,9.25,102.3227,5.227,6.511,91.8,0,109.9,13.48,6.00,66.7
"2009-05-11 00:56:00",875948,8.28,106.4,4.707,1.131,9.55,102.3244,5.232,6.51,91.8,0,109.9,13.48,6.00,68.4
"2009-05-11 00:56:30",875949,7.809,102.3,6.51,1.241,8.81,102.3279,5.24,6.399,91.7,0,109.9,13.48,6.01,64.3
"2009-05-11 00:57:00",875950,6.519,94.1,4.304,0.728,7.146,102.3304,5.247,6.432,91.7,0,109.9,13.48,6.02,56.1
"2009-05-11 00:57:30",875951,7.765,102.5,5.944,1.161,9.92,102.3287,5.243,6.479,91.7,0,109.9,13.48,6.01,64.5
"2009-05-11 00:58:00",875952,7.673,103.3,5.166,1.182,9.5,102.3321,5.251,6.522,91.8,0,109.9,13.48,6.02,65.3
"2009-05-11 00:58:30",875953,7.614,107.3,6.264,1.229,9.46,102.333,5.254,6.445,91.7,0,109.9,13.48,6.02,69.3
"2009-05-11 00:59:00",875954,7.975,107.3,5.591,1.122,9.56,102.335,5.259,6.53,91.7,0,109.8,13.48,6.03,69.3
"2009-05-11 00:59:30",875955,7.946,106.4,7.642,1.209,9.71,102.3344,5.257,6.487,91.7,0,109.9,13.48,6.03,68.4
"2009-05-11 01:00:00",875956,7.351,107.2,7.193,1.232,8.98,102.3353,5.259,6.42,91.7,0,109.9,13.47,6.03,69.2
"2009-05-11 01:00:30",875957,7.602,108.8,5.906,1.085,9.94,102.3344,5.257,6.504,91.7,0,109.9,13.47,6.03,70.8
"2009-05-11 01:01:00",875958,7.185,101,6.248,1.111,9.75,102.339,5.269,6.475,91.7,0,109.9,13.47,6.04,63.0
"2009-05-11 01:01:30",875959,6.355,104.1,5.767,1.126,7.446,102.3373,5.264,6.356,91.6,0,109.9,13.47,6.04,66.1
"2009-05-11 01:02:00",875960,6.733,105.3,6.878,1.181,9.29,102.3412,5.275,6.524,91.8,0,109.8,13.48,6.05,67.3
"2009-05-11 01:02:30",875961,6.287,102.5,6.552,1.41,8.1,102.341,5.274,6.477,91.7,0,109.9,13.47,6.04,64.5
"2009-05-11 01:03:00",875962,6.875,104.3,6.063,1.313,8.63,102.3398,5.271,6.479,91.8,0,109.8,13.47,6.04,66.3
"2009-05-11 01:03:30",875963,7.709,109.8,5.94,1.048,10.13,102.3407,5.273,6.543,91.8,0,109.9,13.48,6.04,71.8
"2009-05-11 01:04:00",875964,7.49,106.8,6.53,1.212,9.04,102.3427,5.278,6.473,91.8,0,109.9,13.48,6.05,68.8
"2009-05-11 01:04:30",875965,7.522,107.5,6.205,1.216,8.89,102.3427,5.278,6.437,91.7,0,109.8,13.48,6.05,69.5
"2009-05-11 01:05:00",875966,7.261,106.7,5.846,1.259,9.05,102.3444,5.283,6.522,91.8,0,109.8,13.48,6.05,68.7
"2009-05-11 01:05:30",875967,6.293,105,4.614,1.059,7.348,102.3415,5.275,6.369,91.6,0,109.8,13.48,6.05,67.0
"2009-05-11 01:06:00",875968,7.904,112.8,7.017,1.244,9.53,102.3444,5.283,6.493,91.7,0,109.9,13.48,6.05,74.8
"2009-05-11 01:06:30",875969,7.606,109.9,7.258,1.195,9.92,102.3461,5.287,6.497,91.7,0,109.9,13.48,6.06,71.9
"2009-05-11 01:07:00",875970,8.22,110.9,4.198,0.78,10.27,102.3501,5.297,6.523,91.7,0,109.8,13.48,6.07,72.9
"2009-05-11 01:07:30",875971,6.934,107,5.501,1.275,8.42,102.3472,5.29,6.432,91.7,0,109.9,13.48,6.06,69.0
"2009-05-11 01:08:00",875972,7.171,108.7,6.469,1.246,8.53,102.3464,5.288,6.436,91.7,0,109.9,13.48,6.06,70.7
"2009-05-11 01:08:30",875973,6.997,109.4,5.722,1.256,8.3,102.3501,5.297,6.514,91.7,0,109.8,13.48,6.07,71.4
"2009-05-11 01:09:00",875974,7.224,108.9,6.885,1.276,9.04,102.3489,5.294,6.509,91.7,0,109.9,13.48,6.06,70.9
"2009-05-11 01:09:30",875975,7.432,109,6.109,1.163,10.08,102.3524,5.303,6.532,91.7,0,109.8,13.48,6.07,71.0
"2009-05-11 01:10:00",875976,7.631,111.4,5.633,1.096,9.8,102.3512,5.3,6.527,91.7,0,109.8,13.48,6.07,73.4
"2009-05-11 01:10:30",875977,7.645,110.4,5.897,1.138,9.24,102.3501,5.297,6.483,91.6,0,109.8,13.48,6.07,72.4
"2009-05-11 01:11:00",875978,6.667,104.5,6.381,1.109,7.554,102.3507,5.299,6.428,91.6,0,109.8,13.48,6.07,66.5
"2009-05-11 01:11:30",875979,7.067,106.6,6.052,1.168,9.05,102.3512,5.3,6.566,91.7,0,109.8,13.48,6.07,68.6
"2009-05-11 01:12:00",875980,7.941,110.4,5.912,0.978,10.61,102.3489,5.294,6.554,91.7,0,109.8,13.48,6.06,72.4
"2009-05-11 01:12:30",875981,7.713,110.4,6.046,1.186,9.76,102.353,5.305,6.53,91.6,0,109.8,13.48,6.08,72.4
"2009-05-11 01:13:00",875982,7.561,106.2,6.997,1.179,9.4,102.3524,5.303,6.454,91.6,0,109.9,13.48,6.07,68.2
"2009-05-11 01:13:30",875983,6.607,99.5,5.697,1.158,7.879,102.3532,5.305,6.501,91.6,0,109.9,13.48,6.08,61.5
"2009-05-11 01:14:00",875984,6.768,100.8,7.654,1.183,7.923,102.3561,5.313,6.353,91.5,0,109.8,13.48,6.08,62.8
"2009-05-11 01:14:30",875985,6.992,107.6,9.22,1.189,9.08,102.3541,5.307,6.568,91.6,0,109.8,13.48,6.08,69.6
"2009-05-11 01:15:00",875986,7.113,105.4,6.28,1.28,9.69,102.3544,5.308,6.472,91.6,0,109.8,13.48,6.08,67.4
"2009-05-11 01:15:30",875987,7.166,108.2,6.517,1.11,10.31,102.357,5.315,6.513,91.6,0,109.9,13.48,6.09,70.2
"2009-05-11 01:16:00",875988,7.295,97.8,7.22,1.188,9.03,102.3566,5.314,6.498,91.6,0,109.8,13.48,6.08,59.8
"2009-05-11 01:16:30",875989,6.231,98.7,5.735,1.14,7.153,102.3569,5.315,6.433,91.5,0,109.8,13.48,6.09,60.7
"2009-05-11 01:17:00",875990,7.083,104.5,7.003,1.185,9.24,102.3598,5.322,6.492,91.6,0,109.9,13.48,6.09,66.5
"2009-05-11 01:17:30",875991,7.412,107,6.262,1.112,9.99,102.3567,5.314,6.514,91.6,0,109.8,13.48,6.08,69.0
"2009-05-11 01:18:00",875992,7.397,112.8,6.167,1.142,10.23,102.3596,5.321,6.586,91.6,0,109.8,13.48,6.09,74.8
"2009-05-11 01:18:30",875993,6.774,103.4,7.095,1.085,9.02,102.3564,5.313,6.474,91.6,0,109.8,13.48,6.08,65.4
"2009-05-11 01:19:00",875994,6.851,105.3,6.615,1.287,8.7,102.3587,5.319,6.533,91.6,0,109.8,13.48,6.09,67.3
"2009-05-11 01:19:30",875995,5.982,100.9,6.907,1.102,7.266,102.3584,5.319,6.406,91.5,0,109.8,13.48,6.09,62.9
"2009-05-11 01:20:00",875996,7.076,105.9,6.889,1.201,9.46,102.3556,5.311,6.545,91.6,0,109.8,13.48,6.08,67.9
"2009-05-11 01:20:30",875997,7.187,104.7,5.733,1.178,10.3,102.3573,5.316,6.545,91.6,0,109.8,13.48,6.09,66.7
"2009-05-11 01:21:00",875998,6.992,102.9,7.657,1.219,9.27,102.3553,5.311,6.476,91.5,0,109.8,13.48,6.08,64.9
"2009-05-11 01:21:30",875999,7.064,105.8,5.419,1.234,9.71,102.3533,5.305,6.544,91.6,0,109.9,13.48,6.08,67.8
"2009-05-11 01:22:00",876000,7.085,103.1,6.407,1.232,8.84,102.3556,5.311,6.533,91.6,0,109.8,13.48,6.08,65.1
"2009-05-11 01:22:30",876001,6.517,102.3,5.753,1.299,8.05,102.3511,5.3,6.412,91.5,0,109.9,13.48,6.07,64.3
"2009-05-11 01:23:00",876002,7.178,109.4,6.519,1.184,9.46,102.3517,5.301,6.526,91.6,0,109.8,13.48,6.07,71.4
"2009-05-11 01:23:30",876003,7.066,107,6.258,1.226,9.53,102.352,5.302,6.564,91.6,0,109.8,13.49,6.07,69.0
"2009-05-11 01:24:00",876004,6.877,106.7,7.159,1.287,8.91,102.3494,5.296,6.45,91.5,0,109.8,13.49,6.07,68.7
"2009-05-11 01:24:30",876005,7.77,110.5,5.504,1.066,9.93,102.3478,5.291,6.548,91.6,0,109.9,13.49,6.06,72.5
"2009-05-11 01:25:00",876006,7.8,111.4,5.93,1.142,9.59,102.3461,5.287,6.517,91.6,0,109.8,13.49,6.06,73.4
"2009-05-11 01:25:30",876007,6.901,108.3,6.171,1.308,8.13,102.3424,5.278,6.406,91.5,0,109.9,13.48,6.05,70.3
"2009-05-11 01:26:00",876008,7.779,111.6,6.111,1.168,9.89,102.3382,5.267,6.548,91.6,0,109.8,13.48,6.04,73.6
"2009-05-11 01:26:30",876009,7.63,108.2,7.301,1.19,9.27,102.3365,5.262,6.481,91.6,0,109.8,13.48,6.03,70.2
"2009-05-11 01:27:00",876010,6.976,107.9,7.678,1.258,8.46,102.3345,5.257,6.431,91.6,0,109.9,13.49,6.03,69.9
"2009-05-11 01:27:30",876011,7.484,113.6,5.796,1.116,9.8,102.3336,5.255,6.55,91.7,0,109.8,13.49,6.03,75.6
"2009-05-11 01:28:00",876012,6.84,109.8,6.709,1.141,8.94,102.3336,5.255,6.557,91.7,0,109.8,13.49,6.03,71.8
"2009-05-11 01:28:30",876013,7.192,105.9,5.717,1.245,9.48,102.3357,5.26,6.519,91.7,0,109.8,13.48,6.03,67.9
"2009-05-11 01:29:00",876014,7.557,105.8,6.583,1.196,9.11,102.3351,5.259,6.471,91.7,0,109.9,13.49,6.03,67.8
"2009-05-11 01:29:30",876015,7.465,112.5,7.566,1.153,9.4,102.3374,5.265,6.528,91.7,0,109.8,13.49,6.04,74.5
"2009-05-11 01:30:00",876016,7.61,111.6,7.77,1.045,9.8,102.3326,5.252,6.506,91.8,0,109.8,13.48,6.02,73.6
"2009-05-11 01:30:30",876017,7.761,113.2,5.761,1.072,9.75,102.3289,5.243,6.465,91.7,0,109.8,13.49,6.01,75.2
"2009-05-11 01:31:00",876018,7.24,110.9,6.306,1.269,8.61,102.3263,5.237,6.479,91.8,0,109.8,13.48,6.01,72.9
"2009-05-11 01:31:30",876019,7.67,109,6.179,1.046,9.94,102.3258,5.235,6.538,91.8,0,109.8,13.48,6.01,71.0
"2009-05-11 01:32:00",876020,7.389,110.4,6.415,1.265,9.11,102.3235,5.229,6.44,91.8,0,109.8,13.48,6.00,72.4
"2009-05-11 01:32:30",876021,7.031,106.9,5.928,1.252,9.42,102.3213,5.224,6.54,91.9,0,109.8,13.48,5.99,68.9
"2009-05-11 01:33:00",876022,6.992,106.1,6.461,1.18,9.49,102.3213,5.224,6.436,91.9,0,109.8,13.48,5.99,68.1
"2009-05-11 01:33:30",876023,6.604,107.8,5.334,1.236,8.98,102.3213,5.224,6.513,92,0,109.8,13.48,5.99,69.8
"2009-05-11 01:34:00",876024,7.806,115.8,5.878,1.037,9.33,102.3168,5.212,6.43,91.9,0,109.8,13.48,5.98,77.8
"2009-05-11 01:34:30",876025,8.05,115.8,5.487,1.111,9.74,102.3125,5.201,6.539,92.1,0,109.8,13.48,5.97,77.8
"2009-05-11 01:35:00",876026,8.07,115.5,6.046,1.055,9.51,102.3072,5.188,6.411,92,0,109.8,13.48,5.96,77.5
"2009-05-11 01:35:30",876027,7.769,110.3,8.02,1.192,9.48,102.3058,5.184,6.448,92.1,0,109.8,13.48,5.95,72.3
"2009-05-11 01:36:00",876028,7.306,107.9,5.682,1.332,9.21,102.3055,5.183,6.483,92.2,0,109.8,13.48,5.95,69.9
"2009-05-11 01:36:30",876029,5.73,108.7,5.923,1.041,7.257,102.3061,5.185,6.313,92.1,0,109.8,13.48,5.96,70.7
"2009-05-11 01:37:00",876030,6.547,112.5,4.9,1.24,8.36,102.3055,5.183,6.458,92.2,0,109.8,13.48,5.95,74.5
"2009-05-11 01:37:30",876031,7.369,114.3,6.757,1.19,9.33,102.3035,5.178,6.482,92.3,0,109.8,13.48,5.95,76.3
"2009-05-11 01:38:00",876032,7.544,110.9,5.85,1.156,9.73,102.299,5.167,6.467,92.3,0,109.8,13.49,5.94,72.9
"2009-05-11 01:38:30",876033,7.228,108.9,7.76,1.287,8.92,102.2982,5.165,6.42,92.3,0,109.8,13.49,5.93,70.9
"2009-05-11 01:39:00",876034,8.18,115.7,5.855,0.774,9.97,102.2973,5.162,6.445,92.4,0,109.8,13.49,5.93,77.7
"2009-05-11 01:39:30",876035,7.606,112.1,5.817,1.285,8.8,102.2917,5.148,6.462,92.4,0,109.8,13.49,5.92,74.1
"2009-05-11 01:40:00",876036,8.4,111.5,4.991,1.174,9.22,102.2894,5.142,6.421,92.4,0,109.8,13.49,5.91,73.5
"2009-05-11 01:40:30",876037,8.56,115,6.101,0.99,9.94,102.2894,5.142,6.45,92.5,0,109.8,13.49,5.91,77.0
"2009-05-11 01:41:00",876038,8.83,115.5,5.818,0.762,10.45,102.2897,5.143,6.485,92.6,0,109.8,13.49,5.91,77.5
"2009-05-11 01:41:30",876039,7.762,109.8,5.993,1.224,8.8,102.288,5.139,6.365,92.5,0,109.8,13.48,5.91,71.8
"2009-05-11 01:42:00",876040,6.98,106.9,6.225,1.118,8.62,102.2803,5.119,6.441,92.7,0,109.8,13.48,5.89,68.9
"2009-05-11 01:42:30",876041,7.461,110.5,7.443,1.126,8.71,102.2753,5.106,6.243,92.5,0,109.8,13.48,5.88,72.5
"2009-05-11 01:43:00",876042,7.313,109.2,6.145,1.256,9.3,102.273,5.1,6.399,92.7,0,109.8,13.49,5.87,71.2
"2009-05-11 01:43:30",876043,7.017,104.3,6.961,1.108,9.35,102.2727,5.1,6.394,92.7,0,109.8,13.49,5.87,66.3
"2009-05-11 01:44:00",876044,6.987,113.6,8.32,1.127,9.32,102.2702,5.093,6.363,92.8,0,109.8,13.49,5.86,75.6
"2009-05-11 01:44:30",876045,7.006,114.7,6.174,1.114,9.35,102.2702,5.093,6.369,92.8,0,109.8,13.49,5.86,76.7
"2009-05-11 01:45:00",876046,6.08,105.1,5.848,0.92,6.608,102.2648,5.079,6.293,92.8,0,109.8,13.49,5.85,67.1
"2009-05-11 01:45:30",876047,7.03,114.9,7.481,1.313,8.85,102.2634,5.076,6.394,93,0,109.8,13.49,5.85,76.9
"2009-05-11 01:46:00",876048,7.292,113.1,5.607,0.973,9.21,102.2628,5.074,6.349,93,0,109.8,13.49,5.84,75.1
"2009-05-11 01:46:30",876049,7.489,113,5.136,0.92,9.86,102.2614,5.071,6.386,93.1,0,109.8,13.49,5.84,75.0
"2009-05-11 01:47:00",876050,7.214,110.9,6.545,1.343,8.82,102.2575,5.061,6.372,93.1,0,109.8,13.49,5.83,72.9
"2009-05-11 01:47:30",876051,7.464,111.7,5.422,1.061,9.34,102.2558,5.056,6.337,93.1,0,109.8,13.48,5.83,73.7
"2009-05-11 01:48:00",876052,6.783,108.5,7.065,1.134,8.08,102.2558,5.056,6.133,93,0,109.8,13.48,5.83,70.5
"2009-05-11 01:48:30",876053,6.617,106.2,7.157,1.15,8.81,102.2558,5.056,6.379,93.2,0,109.8,13.48,5.83,68.2
"2009-05-11 01:49:00",876054,7.6,115.8,4.674,0.967,9.29,102.2558,5.056,6.327,93.3,0,109.8,13.48,5.83,77.8
"2009-05-11 01:49:30",876055,7.537,114,6.338,0.885,9.61,102.2558,5.056,6.334,93.3,0,109.9,13.48,5.83,76.0
"2009-05-11 01:50:00",876056,7.205,116,7.713,1.406,8.41,102.2555,5.056,6.343,93.4,0,109.8,13.48,5.83,78.0
"2009-05-11 01:50:30",876057,7.305,114,6.407,1.254,8.24,102.2507,5.043,6.246,93.3,0,109.8,13.48,5.81,76.0
"2009-05-11 01:51:00",876058,6.643,109.3,5.708,1.149,8.48,102.2493,5.04,6.247,93.4,0,109.8,13.48,5.81,71.3
"2009-05-11 01:51:30",876059,6.989,109.6,5.325,1.217,8.61,102.2442,5.027,6.311,93.5,0,109.8,13.48,5.80,71.6
"2009-05-11 01:52:00",876060,7.299,108.8,6.129,1.246,8.69,102.2368,5.008,6.32,93.5,0,109.8,13.48,5.78,70.8